FW6809 Weather Reports


Display with metric or nautical units.
time (UTC)temp
F
wind
direction
speed
MPH
gust
MPH
rain 1hr
in
rain 24hr
in
rain mn
in
humidity
%
barometer
mb
20260505041554 58 0 0.0 0.0 0.00 0.00 0.00 76 1016.3
20260505040100 58 0 0.0 0.0 0.00 0.00 0.00 72 1016.4
20260505034549 56 0 0.0 0.0 0.00 0.00 0.00 76 1016.5
20260505033053 56 0 0.0 0.0 0.00 0.00 0.00 79 1016.6
20260505031548 56 0 0.0 0.0 0.00 0.00 0.00 80 1016.6
20260505030053 57 0 0.0 0.0 0.00 0.00 0.00 80 1016.5
20260505024607 57 0 0.0 0.0 0.00 0.00 0.00 78 1016.5
20260505023050 57 0 0.0 0.0 0.00 0.00 0.00 80 1016.4
20260505021609 57 0 0.0 0.0 0.00 0.00 0.00 83 1016.3
20260505020049 57 0 0.0 0.0 0.00 0.00 0.00 84 1016.2
20260505014549 57 0 0.0 0.0 0.00 0.00 0.00 85 1016.0
20260505013052 57 0 0.0 0.0 0.00 0.00 0.00 85 1015.9
20260505011557 58 0 0.0 0.0 0.00 0.00 0.00 85 1015.7
20260505010050 59 0 0.0 0.0 0.00 0.00 0.00 83 1015.7
20260505004549 60 0 0.0 0.0 0.00 0.00 0.00 83 1015.6
20260505003054 62 0 0.0 0.0 0.00 0.00 0.00 80 1015.4
20260505001550 64 0 0.0 0.0 0.00 0.00 0.00 78 1015.4
20260505000056 66 0 0.0 0.0 0.00 0.00 0.00 74 1015.3
20260504234551 67 0 0.0 0.0 0.00 0.00 0.00 74 1015.2
20260504233058 68 0 0.0 0.0 0.00 0.00 0.00 70 1015.3
20260504231550 69 0 0.0 0.0 0.00 0.00 0.00 64 1015.3
20260504230051 71 0 0.0 0.0 0.00 0.00 0.00 54 1015.3
20260504224554 72 0 0.0 0.0 0.00 0.00 0.00 50 1015.2
20260504223055 72 104 0.0 1.0 0.00 0.00 0.00 50 1015.3
20260504221603 72 0 0.0 0.0 0.00 0.00 0.00 49 1015.4
20260504220117 73 0 0.0 2.0 0.00 0.00 0.00 48 1015.5
20260504214551 74 0 0.0 1.0 0.00 0.00 0.00 50 1015.6
20260504213104 73 0 1.0 2.0 0.00 0.00 0.00 49 1015.5
20260504211550 74 143 0.0 3.0 0.00 0.00 0.00 49 1015.4
20260504210059 74 0 0.0 1.0 0.00 0.00 0.00 49 1015.4
20260504204601 74 0 0.0 3.0 0.00 0.00 0.00 51 1015.6
20260504203049 74 167 0.0 1.0 0.00 0.00 0.00 48 1015.6
20260504201548 74 0 0.0 1.0 0.00 0.00 0.00 48 1015.9
20260504194549 74 0 0.0 3.0 0.00 0.00 0.00 46 1016.4
20260504193048 73 0 0.0 2.0 0.00 0.00 0.00 48 1016.5
20260504191547 74 0 0.0 1.0 0.00 0.00 0.00 49 1016.7
20260504190050 74 138 0.0 2.0 0.00 0.00 0.00 52 1017.0
20260504184556 74 142 0.0 3.0 0.00 0.00 0.00 51 1017.0
20260504183104 73 136 0.0 2.0 0.00 0.00 0.00 54 1017.2
20260504181554 72 177 0.0 5.0 0.00 0.00 0.00 50 1017.5
20260504180048 73 0 0.0 3.0 0.00 0.00 0.00 49 1017.7
20260504174549 73 0 0.0 1.0 0.00 0.00 0.00 50 1017.9
20260504173055 71 0 0.0 7.0 0.00 0.00 0.00 51 1017.9
20260504171548 72 0 0.0 2.0 0.00 0.00 0.00 52 1018.2
20260504081550 40 0 0.0 0.0 0.00 0.00 0.00 98 1018.9